Weather in Chebenki

Russia / Orenburg Oblast     51°56′15″N   55°42′14″E
temp.,
°C
wind,
m/s
gust,
m/s
humid.,
%
clouds,
%
prec.,
mm/h
press.,
hPa
HPBL,
m
23 may, mon
mon2323:00+7se3886100 0.3 1002398
02:00+7ese4893100 0.6 1000368
05:00+7e5897100 3.8 996319
08:00+9s41399100 4.5 995569
11:00+12sw71394100 6.3 997825
14:00+11sw6139398 2.6 1000670
17:00+12w478824 3.3 1002408
20:00+12wnw228878 0.3 100276
24 may, tue
tue2423:00+10ene1194100 0.9 100314
02:00+10se249726 0.2 1003106
05:00+9ese009719 0.4 100310
08:00+12nne219271 0.0 1004201
11:00+16nnw1177100 0.1 1004781
14:00+17nnw3271100 0.1 1004737
17:00+17nnw4473100 0.1 1004660
20:00+13nnw5992100 1.4 1005398
25 may, wed
wed2523:00+11nnw4695100 3.7 1007272
02:00+11n4994100 0.5 1006325
05:00+10nw4697100 1.9 1006281
08:00+10nw4896100 4.5 1006455
11:00+10nnw3794100 7.4 1008477
14:00+11nnw3584100 0.5 1009410
17:00+13e1172100 0.5 1009577
20:00+13wsw247952 0.2 1009121
26 may, thu
thu2623:00+9wnw3685100 0.3 1010101
02:00+9nw61082100 0.0 1010421
05:00+8wnw48838 0.1 1011369
08:00+8nw58732 0.0 1013613
11:00+11wnw565669 0.0 10131760
14:00+13w5649100 0.1 10141980
17:00+13wsw5655100 0.1 10151730
20:00+11wsw356656 0.1 1015156
27 may, fri
fri2723:00+9sw387114 0.1 1016208
02:00+6ssw367958 0.0 1015103
05:00+6s41082100 0.0 1014199
08:00+10s61371100 0.0 1014556
11:00+13s71268100 0.0 1012779
14:00+16ssw71166100 0.1 10111357
17:00+15s71371100 1.4 1009869
20:00+12s61389100 1.3 1009760